GFSNW_500_spd_135.txt.gz
Wind_Speed
22 17 27 32 32 35 42 46 47 48 52 55 58 59 48 52 47 52 44 39 42 42 40 39 38 34 35 31 24 21 18 17 19 21 21 22 25 28 27 24 17 16 23 24
17 14 22 34 37 38 41 42 43 45 52 51 50 52 56 59 53 48 53 49 50 42 41 38 35 34 31 25 23 19 17 17 18 22 23 26 29 28 26 25 18 17 19 23
13 14 26 34 44 40 37 40 42 45 49 51 47 52 47 50 48 46 50 46 46 45 42 38 34 32 25 21 21 19 18 16 18 21 23 28 33 30 25 22 17 19 21 22
16 14 37 35 39 46 41 41 37 41 51 42 48 46 41 52 53 49 39 43 42 38 38 38 36 28 22 23 20 17 15 16 17 18 23 27 22 18 15 18 20 23 21 20
18 25 24 42 39 45 40 38 39 34 45 37 40 40 50 45 47 50 44 44 42 42 40 35 24 23 24 21 18 15 13 13 14 17 21 15 4 10 11 10 20 17 20 17
21 29 30 32 50 51 46 34 33 37 34 35 43 36 40 48 50 49 46 41 34 34 36 29 26 26 23 20 17 13 11 10 12 15 14 7 8 10 12 14 12 17 22 18
22 27 33 31 40 41 47 41 36 38 36 35 34 34 34 45 42 38 33 35 37 34 26 24 26 25 23 19 16 14 10 10 10 12 8 9 12 10 12 13 13 13 14 16
24 27 30 31 37 47 47 45 42 36 37 31 33 32 29 34 35 35 35 38 35 33 30 28 26 25 22 19 16 13 11 11 11 11 9 10 13 17 17 17 16 19 19 18
27 27 31 34 34 41 47 46 40 32 30 30 28 29 33 31 32 33 34 36 33 29 30 27 26 23 19 18 14 12 13 13 12 12 10 12 12 15 17 23 25 25 25 24
27 29 32 33 34 35 40 42 39 35 34 34 33 31 29 29 33 34 32 31 32 31 29 28 26 22 21 16 13 14 15 14 15 14 13 13 14 16 17 18 18 21 26 28
25 29 29 29 33 36 38 38 35 33 33 30 27 28 29 29 29 31 31 32 32 30 29 29 25 20 19 15 14 17 16 16 16 15 14 15 15 16 18 19 20 22 21 22
24 25 22 24 35 40 40 39 37 35 34 29 31 32 30 29 32 31 31 31 30 31 29 25 20 19 16 16 18 18 18 17 16 16 16 15 15 17 19 22 23 24 25 26
27 22 24 35 42 37 34 34 35 35 34 32 30 27 27 29 30 29 26 28 27 28 25 24 21 19 17 17 16 19 17 17 17 18 17 17 17 18 21 24 26 27 29 30
31 39 37 37 40 35 32 33 36 33 32 30 28 26 25 29 29 29 31 30 28 28 26 24 21 19 18 16 16 18 18 18 18 17 20 20 20 22 24 27 28 29 28 28
28 36 35 32 36 37 33 33 32 30 28 26 25 24 24 27 29 27 27 28 26 25 25 23 21 19 17 18 18 18 18 18 18 19 21 21 23 25 26 27 26 25 25 26
33 34 35 33 36 34 35 33 31 31 28 28 27 25 26 26 27 29 29 28 26 26 24 22 21 19 18 19 18 18 18 19 20 20 20 22 24 24 23 24 24 24 24 24
38 38 38 36 35 32 32 31 26 28 29 26 28 26 24 26 27 28 29 29 29 26 24 23 21 20 18 18 17 18 18 19 19 20 21 20 19 20 19 19 17 16 16 16
37 44 41 37 33 30 31 31 29 26 28 27 25 26 23 24 26 26 26 26 26 25 24 22 20 18 17 15 15 17 17 17 18 18 16 15 13 9 7 6 6 8 11 13
41 43 42 35 32 30 32 32 30 26 29 26 26 23 24 23 22 25 25 25 24 23 21 19 17 15 14 13 15 15 16 17 15 13 10 7 5 4 7 10 13 15 16 16
41 41 36 32 31 30 30 30 31 27 22 27 29 26 24 23 23 23 23 23 23 22 19 17 14 13 12 13 14 15 15 13 11 8 5 5 6 9 12 13 13 13 13 13
40 40 35 31 32 30 27 29 25 26 28 28 29 28 25 25 22 22 24 22 21 20 18 15 13 12 12 12 13 13 11 9 5 4 5 7 10 13 11 11 11 11 9 10
33 31 31 30 30 26 24 23 26 28 27 26 30 27 24 21 22 20 21 22 20 19 16 15 12 13 11 12 12 10 9 7 7 7 8 10 11 10 10 10 9 9 11 13
32 30 29 30 29 30 32 30 24 23 21 23 25 26 25 24 23 22 22 21 19 18 17 13 12 12 12 12 11 9 9 9 9 9 9 11 10 10 9 8 9 10 12 14
28 29 29 30 30 29 25 24 21 21 23 24 23 26 26 23 24 25 23 21 20 18 15 14 11 13 13 12 12 11 11 10 10 9 11 10 10 9 7 7 9 12 15 16
28 27 27 26 24 23 24 25 28 28 29 25 23 24 25 25 26 25 23 22 21 18 15 13 14 14 13 13 12 12 11 12 11 11 11 10 11 8 6 8 12 13 14 15
23 23 24 24 22 22 23 23 24 26 28 29 29 28 27 25 26 25 24 21 20 17 16 15 15 15 14 13 12 12 13 13 12 12 10 12 10 6 7 10 12 12 14 16
19 18 18 17 19 22 22 21 22 23 25 28 29 28 27 25 24 23 21 21 20 18 16 15 16 16 15 14 13 13 14 12 12 11 11 13 10 8 8 10 11 13 15 17

GFSNW_500_spd_138.txt.gz
Wind_Speed
34 36 41 41 41 46 51 54 59 55 52 56 55 54 50 54 53 55 55 60 46 49 49 40 39 40 39 36 35 33 32 27 30 25 25 22 24 27 29 32 31 31 32 36
26 31 37 39 36 40 40 47 53 53 50 53 49 52 50 50 48 49 52 58 51 46 46 38 42 42 37 35 34 32 28 29 26 24 23 23 24 26 28 31 33 29 31 34
27 28 21 24 31 36 34 36 45 47 48 48 47 46 45 42 42 43 54 51 38 33 30 35 34 29 29 30 31 25 26 24 21 23 22 23 23 26 31 33 38 36 30 29
27 25 15 18 23 27 32 35 37 35 36 41 39 41 41 44 42 47 44 43 39 40 37 37 40 41 35 35 31 24 22 21 22 21 20 17 21 26 29 29 24 24 27 28
22 23 14 16 38 29 35 35 33 33 30 30 31 36 37 40 41 40 39 33 39 37 35 39 41 38 35 27 23 23 23 23 20 18 17 17 18 19 11 10 15 20 23 24
21 20 16 20 36 37 35 28 18 29 25 24 29 31 32 37 35 38 38 38 37 39 41 32 37 36 32 28 27 26 23 20 18 16 14 14 12 13 14 16 19 16 14 21
22 20 21 24 32 37 49 52 52 20 30 28 29 30 25 31 36 33 34 36 44 46 48 36 34 37 30 29 28 25 22 19 15 13 11 13 12 15 18 19 16 16 19 19
22 21 23 29 28 39 40 50 50 44 29 30 25 27 31 37 38 40 38 39 39 35 33 32 35 34 31 29 26 23 20 17 15 13 15 13 13 15 16 17 18 22 24 26
22 21 25 30 26 34 36 43 46 42 39 27 26 31 36 34 30 31 36 33 29 34 35 36 34 30 27 28 24 22 20 16 14 14 16 17 13 17 16 17 16 20 25 30
23 24 27 31 29 36 41 38 42 39 38 35 33 32 29 30 29 27 29 32 34 35 35 33 31 29 27 26 23 20 17 16 14 15 18 20 18 16 16 18 19 20 22 25
23 24 27 32 33 37 43 42 44 40 37 33 29 25 25 27 29 30 29 33 34 37 37 33 32 31 29 27 23 19 18 17 16 17 19 22 18 18 19 19 21 22 24 26
22 25 30 32 33 33 36 39 38 39 31 25 26 27 30 29 26 24 28 33 31 32 33 35 31 29 25 21 20 19 19 16 17 16 20 21 21 20 21 21 23 25 27 29
24 28 28 29 30 33 33 36 37 35 33 33 32 30 29 25 22 24 27 33 31 33 32 30 24 25 22 21 20 18 16 17 16 19 20 21 22 23 24 25 26 29 31 33
21 26 25 27 34 36 37 39 39 35 31 33 32 29 26 25 24 25 27 28 33 33 32 29 26 24 24 24 17 16 15 16 17 19 21 21 22 25 26 29 31 33 33 32
33 30 29 34 31 35 36 36 35 33 32 30 28 25 25 25 26 26 27 27 31 31 28 27 29 22 22 20 18 17 17 16 19 20 22 22 24 25 28 31 31 29 28 27
34 34 37 37 35 33 33 38 42 35 31 30 28 24 23 23 24 25 27 28 28 28 28 24 22 23 23 21 21 15 18 18 18 20 21 23 25 27 29 27 25 25 24 23
37 39 37 39 38 31 30 33 34 36 31 28 27 25 24 23 26 26 25 24 27 30 28 26 24 23 22 21 20 17 17 17 18 20 21 24 26 24 22 21 19 15 11 11
42 38 38 38 32 30 31 30 29 28 28 26 26 25 24 22 23 25 26 26 27 28 25 25 24 23 22 21 17 17 16 16 18 19 22 23 21 18 14 11 9 11 14 16
42 40 37 33 32 30 34 32 29 29 27 22 26 23 21 22 22 24 24 24 24 26 27 25 23 22 20 18 16 15 14 16 17 20 20 17 14 11 9 11 13 14 14 13
40 38 37 34 33 33 35 35 31 28 27 27 24 24 26 22 20 21 23 23 24 25 24 24 22 20 19 16 14 13 14 15 18 18 14 11 7 8 12 13 12 11 10 9
33 33 36 31 31 29 31 33 31 31 30 30 27 26 23 23 21 21 22 23 24 25 24 21 20 20 17 15 12 13 14 15 16 12 9 7 8 11 10 9 9 9 8 8
32 36 31 31 33 34 35 31 29 29 26 25 28 28 25 21 21 21 22 23 24 24 22 21 20 18 15 12 12 13 14 16 12 10 10 8 10 9 8 8 8 7 7 8
35 34 32 32 32 32 29 28 25 22 20 21 22 25 26 24 22 21 21 24 23 21 22 21 18 18 13 12 13 14 14 14 12 11 10 9 10 8 9 8 6 6 9 10
33 35 32 33 31 31 27 22 16 20 22 25 23 25 24 22 21 23 23 21 22 22 21 20 19 15 13 13 14 14 14 14 12 12 10 10 10 9 9 7 6 8 9 9
27 27 28 30 27 23 21 20 24 25 24 22 23 22 23 25 26 24 24 23 24 23 21 20 19 16 15 14 16 15 15 15 14 13 12 12 11 11 10 8 8 9 8 10
23 24 23 22 22 21 21 21 23 22 22 22 22 22 23 25 26 25 27 26 24 21 21 22 18 17 16 17 17 16 17 16 15 14 14 14 12 12 12 10 10 10 9 10
23 22 21 21 22 21 20 22 22 23 24 25 26 25 24 23 25 25 26 25 23 25 24 22 19 17 18 18 18 18 18 17 16 15 15 15 14 15 15 13 13 11 12 12

GFSNW_500_spd_141.txt.gz
Wind_Speed
49 51 48 42 44 44 50 53 54 51 52 58 59 57 47 44 43 45 46 44 43 43 42 48 48 45 46 46 39 32 34 33 30 28 28 30 29 29 27 27 28 30 34 38
49 51 44 39 41 47 48 52 55 54 52 58 53 47 45 44 46 44 44 44 47 46 41 41 46 36 36 47 37 39 34 35 31 33 33 26 28 25 25 27 27 31 35 39
48 44 38 37 39 44 48 50 54 55 52 53 52 46 39 38 41 42 41 37 39 43 43 46 42 34 39 36 35 31 34 30 29 30 28 23 22 21 25 25 27 31 34 34
44 37 36 33 37 35 28 40 48 41 29 40 40 39 37 36 37 40 39 37 37 42 40 35 43 38 46 44 32 27 23 27 30 27 24 23 24 22 22 24 23 26 24 20
38 34 32 30 32 19 22 29 34 31 20 23 28 33 34 35 35 35 36 31 32 32 34 29 30 23 19 24 23 25 29 29 26 25 23 21 21 19 19 17 21 19 19 23
33 32 26 29 20 24 29 28 22 28 22 22 22 24 28 28 32 32 28 30 29 27 24 29 33 27 27 25 25 27 29 26 26 23 23 21 18 18 17 16 18 20 21 21
33 28 24 27 16 32 34 30 27 23 22 24 21 22 22 27 27 22 26 25 28 23 28 37 36 27 23 28 31 30 27 27 26 24 23 23 17 15 16 16 17 20 24 23
30 26 23 26 15 33 37 29 39 26 28 25 27 24 20 24 24 24 20 23 27 27 30 32 32 29 28 27 29 28 30 29 24 25 24 20 13 15 16 16 17 19 21 24
28 26 23 25 16 22 43 44 45 35 30 29 19 15 14 23 29 26 27 29 27 26 30 35 37 33 28 30 33 31 30 27 26 23 20 19 13 16 18 16 17 20 20 22
27 26 21 23 17 24 29 38 46 47 37 33 29 19 20 23 25 22 26 30 32 32 27 35 31 29 29 34 34 33 25 26 23 22 21 18 14 17 18 19 21 21 22 22
26 25 19 21 20 25 25 29 33 36 35 29 26 26 25 28 28 27 26 31 33 29 32 32 30 32 35 31 27 26 24 22 21 21 21 17 14 16 20 23 24 25 25 25
25 22 18 18 27 28 28 26 30 34 32 29 27 29 27 28 25 20 20 19 20 27 30 31 31 23 26 27 26 28 27 21 18 19 17 18 16 19 22 25 26 27 28 30
24 20 20 20 31 27 26 25 23 27 30 29 26 26 23 20 17 20 17 21 22 23 28 31 29 30 24 29 25 23 21 19 19 21 14 17 19 21 23 25 27 29 31 33
22 20 20 30 42 32 38 37 32 29 26 27 27 27 26 20 17 16 16 19 24 29 31 30 28 28 26 23 22 21 19 18 17 17 14 18 20 22 25 27 29 31 34 34
22 20 26 38 49 39 43 40 36 30 29 30 29 29 26 19 18 17 21 26 31 33 33 31 30 24 23 21 22 17 15 16 16 15 17 18 21 24 27 28 31 32 30 27
24 30 32 37 50 47 39 38 36 31 30 29 30 25 24 23 22 20 22 25 28 30 33 33 28 24 25 25 21 15 16 17 16 16 19 20 22 25 27 29 28 25 22 20
33 32 32 32 42 44 44 32 34 34 29 29 33 26 25 23 22 23 23 23 21 29 33 31 28 27 25 22 18 15 17 15 16 18 18 20 23 25 26 22 19 17 14 13
38 38 33 31 33 36 37 37 31 30 28 26 26 26 24 23 21 20 22 23 22 24 25 26 28 25 23 22 16 18 15 16 17 17 18 20 23 22 19 16 14 12 13 13
34 37 33 30 29 29 34 37 32 32 29 26 26 23 21 22 23 24 23 22 21 23 28 30 28 24 23 18 19 17 17 16 16 16 18 21 20 17 13 10 12 11 9 8
32 33 31 29 31 29 33 31 30 31 27 23 23 24 23 22 21 20 23 24 25 20 22 27 28 26 24 19 18 17 16 15 15 16 18 18 16 13 10 10 8 7 7 8
37 34 31 29 29 28 31 30 30 29 29 23 25 26 22 22 20 20 21 22 22 20 22 23 23 23 21 17 17 16 15 14 15 16 16 14 13 10 9 6 6 8 9 8
32 30 29 27 26 27 33 35 32 28 27 27 22 22 21 21 20 18 17 19 21 19 20 21 19 20 19 18 17 15 14 13 14 14 13 12 12 10 8 6 8 9 8 7
28 30 29 28 29 29 27 34 30 25 23 22 23 22 23 20 16 17 20 19 18 19 21 20 19 19 18 18 17 14 13 13 13 13 13 13 12 10 8 8 9 10 9 8
26 29 31 31 30 30 25 20 19 19 23 23 21 23 23 22 21 21 19 18 18 21 21 20 21 20 20 19 16 14 13 13 14 14 14 14 13 11 10 10 11 11 11 9
24 29 27 29 24 21 20 18 22 19 23 23 25 24 22 22 23 22 19 20 20 21 21 22 22 21 21 19 16 15 13 13 15 15 15 16 15 13 12 12 13 13 12 10
23 26 22 21 23 21 20 21 19 22 24 27 25 23 20 21 23 21 21 20 20 19 21 22 22 22 20 18 18 16 15 15 16 16 16 18 17 15 15 15 16 16 15 13
22 21 21 20 20 20 20 20 22 23 21 22 21 19 18 18 20 21 21 21 21 23 23 24 23 23 20 19 19 18 17 17 18 18 18 20 18 18 17 17 18 19 18 17

GFSNW_500_spd_144.txt.gz
Wind_Speed
53 49 46 46 42 45 49 50 50 50 51 57 60 60 50 46 43 42 45 45 44 42 41 43 44 44 40 41 42 39 38 40 38 39 37 38 38 33 30 28 27 28 30 33
51 48 45 45 43 46 47 49 50 56 56 58 57 53 51 44 42 40 42 46 43 38 38 38 36 35 39 41 41 43 44 37 36 41 37 40 31 29 30 29 24 26 30 31
49 48 46 46 45 46 47 48 53 56 59 48 50 50 48 42 37 36 40 43 42 39 36 39 40 28 35 33 36 41 44 41 40 38 32 31 24 25 25 23 26 26 28 31
48 46 46 46 46 46 47 48 52 52 57 44 34 38 44 40 33 34 35 39 41 38 35 35 39 42 37 30 29 30 38 44 42 37 32 29 22 24 24 22 25 26 25 27
47 47 46 46 46 43 44 46 49 52 38 34 19 21 30 40 32 30 30 32 30 31 28 28 31 34 30 25 33 41 35 39 34 31 27 24 21 26 24 21 24 23 23 24
48 46 44 43 38 39 37 44 43 26 23 48 45 8 14 26 28 29 29 28 29 28 25 25 26 35 30 23 25 27 34 35 23 22 27 23 27 24 22 19 22 21 22 22
45 43 40 37 35 33 37 32 25 15 12 16 11 10 17 21 24 27 28 28 27 24 23 26 28 24 27 29 25 27 33 24 20 26 30 30 24 24 22 20 20 21 21 21
42 38 35 33 31 32 28 29 26 24 23 17 26 19 19 23 26 27 26 25 21 22 23 26 27 26 23 23 23 26 26 26 27 30 29 27 21 21 22 22 20 21 23 22
38 34 31 30 29 25 27 33 30 26 20 15 19 22 26 25 25 23 24 21 23 25 27 22 20 19 20 24 25 27 31 32 30 28 29 25 19 22 23 21 20 24 24 26
34 31 30 28 25 23 29 34 34 32 32 26 26 26 27 24 19 25 24 21 20 20 24 22 18 21 22 28 27 31 34 28 28 28 26 23 18 21 21 22 23 25 27 28
32 30 27 25 23 21 30 37 35 30 31 30 27 22 20 21 22 24 26 19 19 22 24 26 24 24 28 30 27 26 23 27 29 28 23 21 17 20 20 22 23 25 26 29
31 27 24 23 20 19 26 36 39 37 32 32 30 26 25 22 20 17 19 23 22 27 29 27 26 31 33 30 30 29 28 31 28 25 22 20 18 19 21 23 23 24 27 29
27 24 23 20 19 19 23 28 34 35 33 30 30 27 24 20 16 20 24 27 27 23 22 25 25 20 14 22 29 24 23 22 21 22 19 21 21 20 21 22 24 27 30 32
25 24 22 22 18 27 26 23 24 25 21 27 27 25 20 20 17 15 16 19 20 20 21 22 21 21 16 16 24 22 21 22 21 20 19 22 21 20 21 23 26 29 32 33
27 26 24 28 34 27 28 27 23 22 27 29 28 25 22 21 17 17 18 17 17 19 25 23 28 25 22 19 26 22 17 18 20 19 19 19 19 21 22 25 29 31 32 29
27 27 35 44 40 35 33 33 27 26 24 24 24 24 25 21 17 16 16 15 17 19 25 29 35 29 26 25 23 19 17 18 20 16 16 18 20 22 23 27 29 30 25 18
29 28 50 50 43 42 38 35 28 23 25 30 28 29 26 20 16 15 15 15 18 21 25 32 31 30 27 25 21 18 18 17 17 17 17 18 20 22 24 27 25 19 14 12
30 32 55 51 43 44 39 35 30 27 25 25 28 30 25 20 21 18 16 16 21 24 26 30 29 26 24 21 18 19 20 17 17 18 18 18 20 22 24 21 15 10 10 9
33 33 42 45 40 39 34 32 31 31 28 25 26 29 23 21 21 20 18 20 19 18 22 28 29 28 23 16 21 24 20 18 19 18 17 19 20 21 19 13 9 7 6 6
36 35 35 34 29 30 35 34 29 27 24 25 26 27 24 21 19 18 18 20 20 18 18 23 25 25 23 22 23 22 20 20 18 16 17 18 19 17 12 9 7 6 6 7
32 30 31 31 33 33 34 34 32 27 27 24 23 25 24 23 23 24 23 22 22 22 20 22 25 25 24 25 25 20 19 18 16 17 16 17 18 12 8 8 7 8 9 9
31 33 30 28 27 27 30 33 31 27 25 23 22 22 22 21 21 21 21 21 22 22 21 21 20 22 24 26 23 20 18 17 17 17 16 16 13 10 8 9 11 10 11 10
31 30 27 26 28 30 30 29 26 25 24 21 19 22 23 21 21 20 20 19 19 21 21 20 19 21 23 23 21 19 19 18 18 16 16 14 12 10 10 12 13 12 12 11
28 27 26 25 25 24 21 22 24 25 22 24 24 22 21 23 21 22 20 19 19 19 18 19 20 22 23 22 20 20 20 19 17 16 16 13 12 12 12 15 16 14 14 14
24 25 26 26 24 22 22 23 29 27 24 23 25 25 25 25 23 23 19 18 19 15 16 20 20 22 22 21 21 22 20 19 17 17 14 13 13 14 15 17 18 16 16 17
20 24 22 18 20 20 21 19 24 25 23 26 26 24 24 22 22 20 22 20 15 16 18 21 22 23 22 22 22 21 21 20 18 18 15 15 15 16 18 19 21 19 18 19
18 20 19 17 19 20 21 20 19 21 21 24 26 26 23 20 19 20 20 19 18 18 19 21 22 22 22 22 22 22 22 21 20 18 17 17 17 18 20 21 22 22 22 21

GFSNW_500_spd_147.txt.gz
Wind_Speed
51 49 47 46 45 44 46 46 43 44 46 49 49 47 43 44 46 46 47 44 44 46 45 46 44 43 38 32 29 33 34 43 43 36 44 49 45 41 45 47 41 34 33 34
53 51 49 48 48 46 46 46 45 47 48 51 51 47 47 48 47 43 40 40 39 40 45 46 38 37 30 30 34 36 37 36 39 49 47 42 47 47 44 41 37 32 29 29
56 55 53 51 51 47 45 46 47 49 50 48 50 46 44 49 42 43 40 35 36 38 44 44 39 35 31 31 30 32 37 42 42 40 40 41 40 36 37 30 29 23 26 25
60 57 57 55 50 49 46 46 48 48 50 50 46 43 46 47 49 42 40 35 33 35 39 42 38 32 29 32 27 40 31 33 36 30 32 35 38 35 35 30 21 25 23 26
60 60 57 54 51 48 46 47 46 44 45 49 47 44 41 27 28 31 29 31 28 33 35 35 32 28 26 25 26 25 23 30 30 32 33 37 42 38 35 27 20 23 25 22
61 57 55 54 48 46 45 45 44 43 45 44 45 44 30 18 17 20 25 25 29 32 25 26 27 27 28 29 27 24 25 24 28 32 34 39 41 38 27 20 23 24 20 25
62 58 52 49 48 43 43 40 41 40 39 38 39 35 30 26 23 20 27 28 28 24 24 28 28 30 29 30 29 27 26 26 34 36 36 41 38 26 21 21 19 20 23 25
52 53 51 45 46 42 39 39 39 36 34 28 22 17 18 20 27 25 27 28 26 29 30 28 29 26 25 23 25 34 40 38 34 36 39 35 24 16 17 19 20 21 25 27
50 48 44 43 42 38 36 36 34 31 26 24 19 17 16 22 25 26 26 26 27 28 28 29 29 32 30 27 29 29 30 27 27 34 32 29 16 16 17 19 19 24 26 28
41 41 42 40 37 34 34 32 29 29 30 29 22 14 17 19 20 21 24 24 25 26 29 28 26 26 25 26 21 15 21 23 20 23 26 19 17 17 17 20 22 24 25 26
39 38 36 34 34 33 32 29 29 28 30 31 21 21 21 21 20 20 23 25 25 22 24 24 22 21 23 19 16 18 21 23 24 26 27 19 16 19 19 21 22 22 23 27
32 33 32 33 33 31 29 28 28 28 35 30 26 22 19 20 19 20 20 23 25 23 20 21 21 21 20 18 21 23 23 22 20 19 18 17 17 18 21 22 22 22 26 29
32 33 33 33 30 29 29 27 28 33 39 38 30 27 20 16 20 26 23 21 19 20 18 22 26 30 25 24 29 31 27 24 26 23 23 17 20 20 21 21 22 25 29 31
33 31 31 29 28 26 26 25 26 31 35 33 30 27 25 22 21 24 26 26 27 25 28 31 28 24 24 21 18 21 26 22 19 19 18 19 20 19 18 19 24 27 30 32
31 30 28 25 25 25 22 25 23 28 32 31 29 27 25 22 24 24 22 23 26 30 32 30 29 24 20 13 12 18 19 14 17 19 20 18 17 17 18 22 25 29 30 32
30 28 25 32 28 26 24 24 21 22 25 26 28 25 25 24 20 17 16 17 20 24 25 24 24 27 23 24 11 19 16 15 16 16 17 17 16 17 20 23 26 29 30 31
29 26 39 33 29 25 28 25 20 22 26 26 27 27 26 21 14 11 12 15 17 19 24 27 32 31 24 23 22 25 21 17 16 15 17 17 17 19 21 23 27 28 26 20
28 41 41 37 34 23 28 25 23 23 22 23 23 23 21 14 12 12 11 12 13 16 18 24 30 32 30 25 24 26 22 16 14 16 16 17 18 20 22 24 26 23 16 10
31 49 43 36 36 30 32 30 27 26 21 21 19 19 19 16 16 16 15 14 13 15 15 20 31 35 32 24 23 24 24 18 18 16 16 17 19 20 22 23 20 14 9 7
36 48 45 40 36 31 34 33 30 26 21 23 23 21 25 22 19 18 18 17 16 15 15 21 26 31 27 28 25 24 20 19 20 19 18 19 19 21 21 19 15 11 9 9
34 35 33 39 39 37 31 30 29 23 20 20 21 22 23 26 22 22 20 17 17 17 15 16 18 21 22 28 27 22 22 22 21 20 19 19 19 19 18 16 12 11 11 12
33 35 35 29 36 34 29 28 27 24 20 15 16 17 21 25 23 21 18 17 17 17 17 17 13 17 22 24 26 24 25 24 23 20 20 19 18 17 16 13 12 12 13 14
33 39 41 33 31 33 34 30 27 25 20 17 17 18 20 20 20 19 20 21 20 19 21 17 15 20 23 24 25 28 25 24 22 21 20 19 17 15 14 13 14 15 15 15
32 33 35 35 31 31 24 23 23 22 21 20 20 19 20 21 22 22 21 20 20 20 18 19 21 24 25 25 25 24 26 24 23 21 20 19 17 15 14 14 15 16 16 17
27 29 30 28 21 21 22 23 24 23 22 23 22 21 21 23 22 21 20 21 22 18 16 18 22 23 24 23 23 24 25 24 23 21 21 19 17 16 15 15 16 17 18 19
24 24 22 19 20 21 20 21 24 25 25 24 21 22 23 23 23 21 22 21 17 18 19 20 21 22 23 24 25 24 22 23 23 23 22 21 18 17 17 17 17 19 21 22
24 22 21 20 21 19 19 21 22 27 28 26 23 22 25 24 23 20 20 19 21 22 20 19 19 21 22 24 24 24 24 24 24 23 23 22 20 20 20 20 19 21 24 25